Location: Beccas
(43.4309°N, 0.1528°E)
Time: 02:07:53
(UTC+00:00)

Cosmos 405 - Pass Details

Date: 15 October 2021
Orbit: 445 x 455 km, 81.3° (Epoch: 02 December)

Event Time Altitude Azimuth Distance (km) Brightness Sun altitude
Rises 18:07:45 0° 204° (SSW) 2,439 7.0 -10.1°
Reaches altitude 10° 18:09:53 10° 211° (SSW) 1,570 6.1 -10.5°
Maximum altitude 18:13:09 41° 284° (WNW) 662 4.4 -11.1°
Drops below altitude 10° 18:16:26 10° 356° (N) 1,579 5.7 -11.7°
Sets 18:18:35 0° 4° (N) 2,454 6.6 -12.1°
